Location: Newark
(13.8117°N, 3.6025°W)
Time: 16:16:36
(UTC+00:00)

Explorer 11/Cluster Stage 4 - Pass Details

Date: 28 August 2019
Orbit: 467 x 1259 km, 28.8° (Epoch: 17 October)

Event Time Altitude Azimuth Distance (km) Brightness Sun altitude
Rises 15:54:26 0° 286° (WNW) 4,141 11.2 36.4°
Reaches altitude 10° 15:57:40 10° 280° (W) 3,111 11.0 35.6°
Maximum altitude 16:04:48 40° 214° (SW) 1,530 8.8 33.9°
Drops below altitude 10° 16:10:51 10° 146° (SE) 2,637 9.1 32.4°
Sets 16:13:24 0° 138° (SE) 3,455 9.5 31.8°
